VK8HF Weather Reports


time (UTC)temp
C
wind
direction
speed
KPH
gust
KPH
rain 1hr
cm
rain 24hr
cm
rain mn
cm
humidity
%
barometer
mb
20260508184511 23 251 1.6 9.7 0.00 0.00 0.00 67 1010.8
20260508183011 23 216 3.2 9.7 0.00 0.00 0.00 67 1010.8
20260508181519 23 218 1.6 8.0 0.00 0.00 0.00 68 1010.8
20260508180010 23 225 1.6 6.4 0.00 0.00 0.00 68 1010.9
20260508174510 23 235 1.6 8.0 0.00 0.00 0.00 68 1011.0
20260508173017 23 209 3.2 9.7 0.00 0.00 0.00 68 1011.0
20260508171519 23 237 3.2 8.0 0.00 0.00 0.00 69 1011.1
20260508170008 22 225 0.0 6.4 0.00 0.00 0.00 69 1011.2
20260508164510 23 248 0.0 6.4 0.00 0.00 0.00 69 1011.2
20260508163012 23 261 1.6 9.7 0.00 0.00 0.00 68 1011.3
20260508161506 23 238 0.0 6.4 0.00 0.00 0.00 68 1011.5
20260508160005 23 237 1.6 8.0 0.00 0.00 0.00 68 1011.5
20260508154508 23 221 3.2 14.5 0.00 0.00 0.00 68 1011.7
20260508153008 23 246 1.6 8.0 0.00 0.00 0.00 68 1011.8
20260508151506 23 257 1.6 8.0 0.00 0.00 0.00 68 1011.9
20260508150008 23 269 0.0 8.0 0.00 0.00 0.00 68 1011.9
20260508144505 23 261 0.0 4.8 0.00 0.00 0.00 67 1011.9
20260508143016 24 266 0.0 9.7 0.00 0.00 0.00 67 1011.9
20260508141504 24 256 0.0 1.6 0.00 0.00 0.00 68 1011.9
20260508140004 24 275 0.0 9.7 0.00 0.00 0.00 67 1012.1
20260508134503 25 278 1.6 6.4 0.00 0.00 0.00 67 1012.2
20260508133002 25 277 1.6 8.0 0.00 0.00 0.00 64 1012.3
20260508131502 25 259 3.2 8.0 0.00 0.00 0.00 62 1012.3
20260508130001 25 249 0.0 8.0 0.00 0.00 0.00 63 1012.3
20260508124501 25 228 0.0 6.4 0.00 0.00 0.00 65 1012.3
20260508123002 24 252 0.0 3.2 0.00 0.00 0.00 70 1012.3
20260508121602 22 223 0.0 0.0 0.00 0.00 0.00 79 1012.3
20260508120100 22 223 0.0 0.0 0.00 0.00 0.00 81 1012.4
20260508114559 22 223 0.0 0.0 0.00 0.00 0.00 80 1012.2
20260508113059 22 223 0.0 0.0 0.00 0.00 0.00 80 1012.2
20260508111603 22 223 0.0 0.0 0.00 0.00 0.00 80 1012.0
20260508110057 22 223 0.0 0.0 0.00 0.00 0.00 80 1011.8
20260508104553 23 223 0.0 0.0 0.00 0.00 0.00 79 1011.7
20260508103053 23 223 0.0 0.0 0.00 0.00 0.00 77 1011.4
20260508101552 23 223 0.0 0.0 0.00 0.00 0.00 76 1011.3
20260508100052 24 223 0.0 0.0 0.00 0.00 0.00 76 1011.1
20260508094604 24 223 0.0 0.0 0.00 0.00 0.00 74 1011.0
20260508093052 25 223 0.0 0.0 0.00 0.00 0.00 73 1010.8
20260508091550 26 223 0.0 0.0 0.00 0.00 0.00 66 1010.7
20260508090048 27 223 0.0 0.0 0.00 0.00 0.00 61 1010.5
20260508084547 28 223 0.0 0.0 0.00 0.00 0.00 57 1010.3
20260508083046 29 223 0.0 4.8 0.00 0.00 0.00 53 1010.2
20260508081602 30 227 0.0 9.7 0.00 0.00 0.00 51 1010.1
20260508080046 30 256 1.6 8.0 0.00 0.00 0.00 49 1010.0
20260508074544 31 219 0.0 8.0 0.00 0.00 0.00 48 1009.8
20260508073044 31 216 4.8 11.3 0.00 0.00 0.00 47 1009.8
20260508071544 31 244 4.8 16.1 0.00 0.00 0.00 46 1009.7
20260508070046 31 227 0.0 12.9 0.00 0.00 0.00 47 1009.7
20260508064542 31 249 3.2 12.9 0.00 0.00 0.00 46 1009.6
20260508063041 31 264 1.6 12.9 0.00 0.00 0.00 46 1009.6
20260508061540 31 271 4.8 14.5 0.00 0.00 0.00 46 1009.6
20260508060038 31 196 1.6 12.9 0.00 0.00 0.00 47 1009.7
20260508054543 31 231 6.4 16.1 0.00 0.00 0.00 46 1009.8
20260508053037 31 217 6.4 14.5 0.00 0.00 0.00 46 1009.9
20260508051534 31 237 4.8 16.1 0.00 0.00 0.00 46 1010.0
20260508050035 31 230 3.2 17.7 0.00 0.00 0.00 47 1010.1
20260508044530 31 222 4.8 19.3 0.00 0.00 0.00 46 1010.2
20260508043028 31 218 4.8 20.9 0.00 0.00 0.00 46 1010.2
20260508041526 31 235 3.2 16.1 0.00 0.00 0.00 46 1010.3
20260508040025 31 189 8.0 16.1 0.00 0.00 0.00 46 1010.5
20260508034529 31 193 4.8 14.5 0.00 0.00 0.00 47 1010.7
20260508033021 30 232 4.8 16.1 0.00 0.00 0.00 47 1011.0
20260508031519 30 231 8.0 17.7 0.00 0.00 0.00 48 1011.2
20260508030014 30 191 11.3 19.3 0.00 0.00 0.00 48 1011.4
20260508024512 29 247 3.2 20.9 0.00 0.00 0.00 49 1011.7
20260508023011 28 187 11.3 29.0 0.00 0.00 0.00 49 1012.1
20260508021506 28 256 9.7 25.7 0.00 0.00 0.00 50 1012.3
20260508020001 28 266 9.7 20.9 0.00 0.00 0.00 50 1012.5
20260508013056 27 192 6.4 22.5 0.00 0.00 0.00 52 1012.9
20260508011600 27 282 9.7 19.3 0.00 0.00 0.00 52 1013.0
20260508010051 26 209 9.7 25.7 0.00 0.00 0.00 52 1013.1
20260508003047 26 240 8.0 17.7 0.00 0.00 0.00 52 1013.3
20260508001542 26 244 6.4 19.3 0.00 0.00 0.00 55 1013.3
20260508000037 25 202 6.4 14.5 0.00 0.00 0.00 55 1013.3
20260507233035 23 237 6.4 14.5 0.00 0.00 0.00 59 1013.2
20260507231538 23 231 9.7 17.7 0.00 0.00 0.00 59 1013.1
20260507230027 23 258 6.4 19.3 0.00 0.00 0.00 60 1013.1
20260507223022 22 188 6.4 17.7 0.00 0.00 0.00 62 1013.0
20260507221521 21 263 6.4 16.1 0.00 0.00 0.00 63 1012.7
20260507220024 21 282 4.8 12.9 0.00 0.00 0.00 65 1012.5
20260507213027 20 259 3.2 16.1 0.00 0.00 0.00 66 1012.3
20260507211521 21 285 4.8 14.5 0.00 0.00 0.00 66 1012.3
20260507210020 21 254 4.8 16.1 0.00 0.00 0.00 66 1012.1
20260507203016 21 218 3.2 12.9 0.00 0.00 0.00 66 1011.9
20260507201517 21 254 3.2 9.7 0.00 0.00 0.00 66 1011.9
20260507200023 21 277 1.6 12.9 0.00 0.00 0.00 66 1011.8
20260507193015 21 236 0.0 9.7 0.00 0.00 0.00 66 1011.8
20260507191515 21 261 4.8 12.9 0.00 0.00 0.00 65 1011.7
20260507190014 21 218 3.2 12.9 0.00 0.00 0.00 65 1011.5